www.pogodaiklimat.ru

Погода и климат >> Архив погоды >> Россия >> Ненецкий АО >> Сенгейский Шар


ПОГОДА в Сенгейском Шаре

  • Прогноз погоды в Сенгейском Шаре
  • Монитор погоды в Сенгейском Шаре

АРХИВ ПОГОДЫ в Сенгейском Шаре

Время (UTC), дата Ветер
(напр.,м/с)
 
Видим.   Явления Облачность Т
(С)
Тd
(С)
f
(%)
Тe
(С)
Тes
(С)
Комфортность P
(гПа)
Po
(гПа)
Тmin
(С)
Tmax
(С)
R
(мм)
R24
(мм)
S
(см)
09 12.08 З 3 н/о н/о +5.8 +0.1 67 +3 +3 1020.6 1020.0
12 12.08 З 3 н/о н/о +7.0 +0.7 64 +4 +4 1020.6 1020.0
15 12.08 ЮЗ 4 н/о н/о +8.8 +4.0 72 +6 +6 1019.3 1018.7
18 12.08 Ю 5 н/о н/о +7.0 +4.3 83 +3 +3 1017.9 1017.3
21 12.08 Ю 5 н/о н/о +5.8 +3.0 82 +1 +1 1017.9 1017.3
00 13.08 Ю 5 н/о н/о +5.4 +3.4 87 +1 +1 1019.3 1018.7
03 13.08 ЮЗ 8 н/о н/о +8.9 +3.9 71 +5 +5 1019.3 1018.7
06 13.08 ЮЗ 6 н/о н/о +11.8 +5.2 64 +9 +9 1019.3 1018.7
09 13.08 З 4 н/о н/о +10.2 +4.8 69 +8 +8 1017.9 1017.3
12 13.08 СЗ 2 н/о н/о +10.9 +4.1 63 +10 +10 1017.9 1017.3
15 13.08 С 2 н/о н/о +12.4 +2.8 52 +12 +12 1016.6 1016.0
18 13.08 Ю 5 н/о н/о +9.8 +4.2 68 +7 +7 1016.6 1016.0
21 13.08 Ю 4 н/о н/о +7.1 +2.0 70 +4 +4 1015.3 1014.7
00 14.08 Ю 4 н/о н/о +5.5 +1.2 74 +2 +2 1013.9 1013.3
03 14.08 В 1 н/о н/о +9.5 +3.7 67 +9 +9 1013.9 1013.3
06 14.08 С 2 н/о н/о +12.4 +5.1 61 +12 +12 1012.6 1012.0
09 14.08 С 3 н/о н/о +13.4 +5.3 58 +12 +12 1011.3 1010.7
12 14.08 С 3 н/о н/о +15.1 +2.9 44 +15 +15 1009.9 1009.3
15 14.08 СВ 4 н/о н/о +14.0 +5.1 55 +13 +13 1009.9 1009.3
18 14.08 В 4 н/о н/о +10.6 +7.3 80 +8 +8 1009.9 1009.3
21 14.08 ЮВ 4 н/о н/о +7.5 +4.8 83 +4 +4 1008.6 1008.0
00 15.08 ЮЗ 4 н/о н/о +5.9 +4.1 88 +2 +2 1008.6 1008.0
03 15.08 Ю 1 н/о н/о +9.6 +7.7 88 +9 +9 1008.6 1008.0
06 15.08 Ю 4 н/о н/о +12.9 +8.2 73 +11 +11 1008.6 1008.0
09 15.08 Ю 3 н/о н/о +13.2 +9.3 77 +12 +12 1008.6 1008.0
12 15.08 З 1 н/о н/о +12.0 +9.2 83 +12 +12 1008.6 1008.0
15 15.08 В 3 н/о н/о +13.2 +10.7 85 +12 +12 1008.6 1008.0
18 15.08 Ю 3 н/о н/о +12.9 +10.8 87 +11 +11 1007.3 1006.7
21 15.08 ЮВ 4 н/о н/о +11.6 +10.7 94 +9 +9 1007.3 1006.7
00 16.08 В 4 н/о н/о +10.6 +9.8 95 +8 +8 1004.6 1004.0
03 16.08 В 4 н/о н/о +11.4 +10.6 95 +9 +9 1003.3 1002.7
06 16.08 СВ 5 н/о н/о +12.0 +11.4 96 +9 +9 1001.9 1001.3
09 16.08 СВ 7 н/о н/о +12.5 +12.0 97 +9 +9 1000.6 1000.0
12 16.08 С 6 н/о н/о +9.4 +8.9 97 +6 +6 1001.9 1001.3
15 16.08 С 5 н/о н/о +8.7 +8.3 97 +5 +5 1004.6 1004.0
18 16.08 С 5 н/о н/о +8.1 +7.8 98 +4 +4 1007.3 1006.7
21 16.08 СЗ 5 н/о н/о +8.6 +8.3 98 +5 +5 1009.9 1009.3
00 17.08 З 3 н/о н/о +8.0 +7.7 98 +5 +5 1012.6 1012.0
03 17.08 СЗ 3 н/о н/о +7.9 +7.6 98 +5 +5 1013.9 1013.3
06 17.08 З 2 н/о н/о +8.1 +7.8 98 +6 +6 1015.3 1014.7
09 17.08 З 3 н/о н/о +8.4 +8.1 98 +6 +6 1017.9 1017.3
12 17.08 З 6 н/о н/о +7.4 +7.1 98 +3 +3 1019.3 1018.7
15 17.08 З 4 н/о н/о +6.3 +6.0 98 +2 +2 1020.6 1020.0
18 17.08 З 5 н/о н/о +7.7 +7.4 98 +4 +4 1020.6 1020.0
21 17.08 Ю 2 н/о н/о +8.4 +8.1 98 +6 +6 1020.6 1020.0
00 18.08 Ю 5 н/о н/о +9.2 +8.6 96 +6 1021.9 1021.3
03 18.08 ЮЗ 6 н/о н/о +11.2 +9.6 90 +8 +8 1021.9 1021.3
06 18.08 ЮЗ 7 н/о н/о +12.9 +9.7 81 +10 +10 1021.9 1021.3
09 18.08 ЮЗ 6 н/о н/о +12.2 +9.8 85 +9 +9 1021.9 1021.3
12 18.08 ЮЗ 5 н/о н/о +12.9 +9.7 81 +11 +11 1023.3 1022.7
15 18.08 ЮЗ 5 н/о н/о +13.2 +9.8 80 +11 +11 1023.3 1022.7
18 18.08 Ю 4 н/о н/о +12.4 +10.8 90 +10 +10 1024.6 1024.0
21 18.08 Ю 5 н/о н/о +11.2 +9.1 87 +8 1024.6 1024.0
00 19.08 Ю 4 н/о н/о +9.7 +8.0 89 +7 1025.9 1025.3
03 19.08 Ю 4 н/о н/о +12.9 +9.3 79 +11 1025.9 1025.3
06 19.08 Ю 7 н/о н/о +17.8 +10.2 61 +17 1025.9 1025.3

 

Местоположение метеостанции Сенгейский Шар (Ненецкий АО, Россия): широта 68.48 долгота 51.25 высота над уровнем моря 5 м.

В архиве по умолчанию представлена погода в Сенгейском Шаре за последнюю неделю. Архивные данные за месяц целиком и за предыдущие месяцы, начиная с января 2011 года, Вы можете получить, выбрав интересующий диапазон дат из раскрывающегося списка и нажав кнопку "Ввод!".


*Определитесь, кто Вы:
робот инопланетянин человек

Внимание! Время в таблицах - всемирное. Для получения местного времени необходимо прибавить поправку, которая равна 3 ч.

Смотрите также архив погоды в соседних городах и на ближайших метеорологических станциях:

Погода в Бугрино (Ненецкий АО, Россия) (86 км)
Погода в Ходоварихе (Ненецкий АО, Россия) (113 км)
Погода в Нарьян-Маре (Ненецкий АО, Россия) (120 км)
Погода в Индиге (Ненецкий АО, Россия) (139 км)
Погода на Колгуевом Острове (Ненецкий АО, Россия) (145 км)
Погода в Коткино (Ненецкий АО, Россия) (161 км)
Погода на Мысе Константиновском (Ненецкий АО, Россия) (173 км)
Погода на Мысе Микулкин (Ненецкий АО, Россия) (205 км)
Погода в Нижней Пеше (Ненецкий АО, Россия) (242 км)
Погода в Окуневом Носу (Коми, Россия) (254 км)

Пояснения к столбцам:

Ветер - указаны скорость ветра в м/с - средняя за 10 мин, порывы в срок и между сроками (в фигурных скобках) и направление, откуда дует ветер: С - северный, СВ - северо-восточный, В - восточный, ЮВ - юго-восточный, Ю - южный, ЮЗ - юго-западный, З - западный, СЗ - северо-западный.
Видимость - горизонтальная дальность видимости в метрах или километрах. При видимости от 1 до 10 км при отсутствии осадков обычно наблюдается дымка, при ухудшении видимости до 1 км и менее - туман. В сухую погоду видимость может ухудшаться дымом, пылью или мглою.
Явления - указаны атмосферные явления, наблюдавшиеся в срок или в последний час перед сроком; фигурными скобками обозначены явления, наблюдавшиеся между сроками (за 1-3 часа до срока); квадратными скобками обозначены град или гололедные отложения с указанием их диаметра в мм.
Облачность - указаны через наклонную черту общая и нижняя облачность в баллах и высота нижней границы облаков в метрах; квадратными скобками обозначены формы облаков: Ci - перистые, Cs - перисто-слоистые, Cc - перисто-кучевые, Ac - высококучевые, As - высокослоистые, Sc - слоисто-кучевые, Ns - слоисто-дождевые, Cu - кучевые, Cb - кучево-дождевые. Подробнее классификацию облаков см. в Атласе облаков (PDF).
T - Температура воздуха - температура, измеренная на высоте 2 м над землей.
Td - Температура точки росы - температура, при понижении до которой содержащийся в воздухе водяной пар достигнет насыщения.
f - Относительная влажность воздуха - влажноcть воздуха, измеренная на высоте 2 м над землей.
Te - Эффективная температура - температура, которую ощущает одетый по сезону человек в тени. Характеристика душности погоды. При расчете учитывается влияние влажности воздуха и скорости ветра на теплоощущения человека.
Tes - Эффективная температура на солнце - температура, которую ощущает человек, с поправкой на солнечный нагрев. Характеристика знойности погоды. Зависит от высоты солнца над горизонтом, облачности и скорости ветра. Ночью, в пасмурную погоду, а также при ветре 12 м/с и более поправка равна нулю.
P - Атмосферное давление - приведенное к уровню моря атмосферное давление.
Po - Атмосферное давление - измеренное на уровне метеостанции атмосферное давление.
Tmin - Минимальная температура - минимум температуры воздуха на высоте 2 м над землей.
Tmax - Максимальная температура - максимум температуры воздуха на высоте 2 м над землей.
R - Количество осадков - Количество выпавших осадков за период времени, мм. При наведении курсора мыши на число - период времени, за который выпало указанное количество осадков.
R24 - Количество осадков - Количество выпавших осадков за 24 часа, мм.
S - Снежный покров - Высота снежного покрова, см. При наведении курсора мыши на число - состояние снежного покрова и степень покрытия местности в баллах.